Location: Poughquag
(41.6090°N, 73.6820°W)
Time: 18:26:10
(UTC-04:00)

S-56A Canister/Altair - Pass Details

Date: 03 June 2020
Orbit: 633 x 2499 km, 38.9° (Epoch: 19 September)

Event Time Altitude Azimuth Distance (km) Brightness Sun altitude
Exits shadow 03:37:45 18° 184° (S) 1,761 8.9 -15.5°
Maximum altitude 03:40:10 26° 145° (SE) 1,580 9.0 -15.2°
Drops below altitude 10° 03:45:23 10° 91° (E) 2,829 11.0 -14.6°
Sets 03:49:03 0° 80° (E) 4,106 12.1 -14.1°
